Printer-friendly version

IAU Minor Planet Center

Minor Planet Center

MPEC 2000-E10: 2000 DK8

The following Minor Planet Electronic Circular may be linked-to from your own Web pages, but must not otherwise be redistributed electronically.


Read MPEC 2000-E09 Read MPEC 2000-E11


M.P.E.C. 2000-E10                                Issued 2000 Mar. 2, 17:57 UT

     The Minor Planet Electronic Circulars contain information on unusual
         minor planets and routine data on comets.  They are published
   on behalf of Commission 20 of the International Astronomical Union by the
          Minor Planet Center, Smithsonian Astrophysical Observatory,
                          Cambridge, MA 02138, U.S.A.

             Prepared using the Tamkin Foundation Computer Network

             BMARSDEN@CFA.HARVARD.EDU or GWILLIAMS@CFA.HARVARD.EDU
          URL http://cfa-www.harvard.edu/iau/mpc.html  ISSN 1523-6714

                                   2000 DK8

Observations:
     K00D08K* C2000 02 26.38928 13 59 01.60 +44 59 35.5          16.9        704
     K00D08K  C2000 02 26.40278 13 58 56.87 +44 59 27.7          17.1        704
     K00D08K  C2000 02 26.41625 13 58 52.14 +44 59 18.7          17.4        704
     K00D08K  C2000 02 26.42963 13 58 47.42 +44 59 10.9          17.5        704
     K00D08K  C2000 02 26.44301 13 58 42.71 +44 59 02.3          17.3        704
     K00D08K  C2000 02 27.06265 13 55 17.35 +44 52 09.4                      611
     K00D08K  C2000 02 27.06402 13 55 16.87 +44 52 08.3                      611
     K00D08K  C2000 02 27.06538 13 55 16.24 +44 52 07.7                      611
     K00D08K  C2000 02 27.06603 13 55 16.03 +44 52 07.4          17.8 R      046
     K00D08K  C2000 02 27.06711 13 55 15.83 +44 52 05.5                      611
     K00D08K  C2000 02 27.06877 13 55 15.30 +44 52 04.3                      611
     K00D08K  C2000 02 27.07060 13 55 14.29 +44 52 03.9                      557
     K00D08K  C2000 02 27.07133 13 55 14.21 +44 52 03.8                      046
     K00D08K  C2000 02 27.07214 13 55 13.96 +44 52 03.4                      046
     K00D08K  C2000 02 27.07299 13 55 13.72 +44 52 02.9                      046
     K00D08K  C2000 02 27.07362 13 55 13.37 +44 52 01.6                      557
     K00D08K  C2000 02 27.07394 13 55 13.37 +44 52 02.3                      046
     K00D08K  C2000 02 27.07514 13 55 12.85 +44 52 00.9                      557
     K00D08K  C2000 02 27.07639 13 55 12.55 +44 52 00.6          18.0 R      046
     K00D08K  C2000 02 27.10334 13 55 03.21 +44 51 42.9          17.2 R      118
     K00D08K  C2000 02 27.10904 13 55 01.36 +44 51 39.1                      118
     K00D08K  C2000 02 27.11128 13 55 00.57 +44 51 37.3          17.6 R      118
     K00D08K  C2000 02 27.30013 13 54 01.09 +44 49 32.2          18.9 V      651
     K00D08K  C2000 02 27.30236 13 54 00.33 +44 49 30.7          18.7 V      651
     K00D08K  C2000 02 27.30394 13 53 59.80 +44 49 29.9          18.7 V      651
     K00D08K  C2000 02 27.36126 13 53 40.44 +44 48 53.5          17.9 R      858
     K00D08K  C2000 02 27.36417 13 53 39.42 +44 48 51.7          17.9 R      858
     K00D08K  C2000 02 27.36691 13 53 38.51 +44 48 49.9          17.7 R      858
     K00D08K  C2000 02 28.11352 13 49 38.89 +44 40 00.5          17.7 R      118
     K00D08K  C2000 02 28.11564 13 49 38.26 +44 39 59.5                      118
     K00D08K  C2000 02 28.11998 13 49 36.80 +44 39 56.3                      118
     K00D08K  C2000 02 28.91767 13 45 31.97 +44 29 58.7                      557
     K00D08K  C2000 02 28.92117 13 45 30.92 +44 29 55.9          19.1 V      557
     K00D08K  C2000 02 29.16551 13 44 14.28 +44 26 55.6                      118
     K00D08K  C2000 02 29.16825 13 44 13.53 +44 26 54.9                      118
     K00D08K  C2000 02 29.17326 13 44 12.05 +44 26 50.0          18   R      118
     K00D08K  C2000 02 29.45042 13 42 49.69 +44 23 24.2          18.2        704
     K00D08K  C2000 02 29.46390 13 42 45.44 +44 23 13.5          18.1        704
     K00D08K  C2000 02 29.47737 13 42 41.23 +44 23 02.2          18.4        704
     K00D08K  C2000 03 01.76491 13 36 28.02 +44 05 40.7          18.5 V      402
     K00D08K  C2000 03 01.76616 13 36 27.71 +44 05 40.5                      402
     K00D08K  C2000 03 01.76742 13 36 27.28 +44 05 39.6                      402
     K00D08K  C2000 03 01.76868 13 36 26.90 +44 05 37.5                      402
     K00D08K FC2000 03 02.43921 13 33 20.15 +43 56 10.8                      670
     K00D08K  C2000 03 02.54088 13 32 50.93 +43 54 38.7                      670

Observer details:
046 Klet.  Observers J. Ticha, M. Tichy.  0.57-m f/5.2 reflector + CCD.
118 Modra.  Observers A. Galad, L. Kornos, P. Koleny.  0.6-m f/5.5 reflector
    + CCD.
402 Dynic Astronomical Observatory.  Observer A. Sugie.  0.60-m f/3.7 reflector
    + CCD.
557 Ondrejov.  Observer L. Sarounova.  0.65-m f/3.6 reflector + CCD.
611 Starkenburg.  Observers M. Busch, R. Stoss.  0.45-m f/4.4 reflector + CCD.
651 Grasslands Observatory, Tucson.  Observer J. E. McGaha.  0.62-m f/5.1
    reflector + CCD.
670 Camarillo.  Observer J. E. Rogers.  0.30-m f/6.7 Helin Telescope + CCD.
704 Lincoln Laboratory ETS, New Mexico.  Observers M. Blythe, F. Shelly,
    M. Bezpalko, M. Elowitz, R. Huber.  Measurers J. Stuart, H. Viggh,
    R. Sayer, J. B. Evans.  1.0-m f/2.15 reflector + CCD.
858 Tebbutt Observatory, Edgewood.  Observer F. B. Zoltowski.  0.3-m f/3.3
    Schmidt-Cassegrain + CCD.

Orbital elements:
2000 DK8
Epoch 2000 Feb. 26.0 TT = JDT 2451600.5                 Williams
M  13.41644              (2000.0)            P               Q
n   0.23828483     Peri.  340.82150     +0.10417186     -0.97104933
a   2.5767470      Node   102.74494     +0.93886962     +0.02470188
e   0.6941339      Incl.   12.73245     +0.32813421     +0.23759843
P   4.14           H   19.3           G   0.15
From 45 observations 2000 Feb. 26-Mar. 2.

Ephemeris:
2000 DK8                 a,e,i = 2.58, 0.69, 13                  q = 0.7881
Date    TT    R. A. (2000) Decl.     Delta      r     Elong.  Phase     V
2000 02 26    14 01.22   +45 03.5    0.276    1.163   122.8    45.7    18.6
2000 03 02    13 35.37   +44 02.3    0.315    1.214   128.9    39.5    18.8
2000 03 07    13 14.16   +42 44.8    0.357    1.265   133.7    34.6    19.0
2000 03 12    12 56.72   +41 16.0    0.401    1.317   137.3    30.8    19.2
2000 03 17    12 42.48   +39 39.4    0.449    1.369   139.7    28.1    19.5
2000 03 22    12 30.97   +37 58.1    0.500    1.420   140.9    26.2    19.7
2000 03 27    12 21.82   +36 14.6    0.555    1.471   141.1    25.2    20.0
2000 04 01    12 14.68   +34 30.3    0.613    1.522   140.4    24.8    20.3
2000 04 06    12 09.31   +32 46.6    0.675    1.573   138.9    24.7    20.6
2000 04 11    12 05.48   +31 04.3    0.741    1.623   136.8    25.0    20.9
2000 04 16    12 02.98   +29 24.2    0.810    1.673   134.3    25.4    21.1
2000 04 21    12 01.62   +27 46.8    0.882    1.722   131.6    25.9    21.4
2000 04 26    12 01.23   +26 12.3    0.958    1.771   128.6    26.4    21.6
2000 05 01    12 01.68   +24 40.7    1.037    1.819   125.6    26.8    21.9
2000 05 06    12 02.85   +23 11.9    1.120    1.866   122.4    27.1    22.1

Gareth V. Williams           (C) Copyright 2000 MPC           M.P.E.C. 2000-E10

Read MPEC 2000-E09 Read MPEC 2000-E11


Our Web policy. Index to the CBAT/MPC/ICQ pages.


Valid HTML 4.01!